Russell, KS

10:06 AM CST on January 18, 2018 (GMT -0600)
Russell Municipal

Weather History for KRSL - May, 2013

Change the Weather History Date:

Tuesday, May 14, 2013

  Actual Average Record
Temperature  
Mean Temperature 78 °F -  
Max Temperature 97 °F 74 °F 97 °F (2013)
Min Temperature 61 °F 51 °F 27 °F (1953)
Cooling Degree Days 14    
Growing Degree Days 28 (Base 50)    
Moisture  
Dew Point 45 °F    
Average Humidity 37    
Maximum Humidity 73    
Minimum Humidity 14    
Precipitation  
Precipitation 0.00 in - - ()
Sea Level Pressure  
Sea Level Pressure 29.77 in    
Wind  
Wind Speed 16 mph (SSW)    
Max Wind Speed 31 mph    
Max Gust Speed 39 mph    
Visibility 10 miles    
Events      
Averages and records for this station are not official NWS values.
T = Trace of Precipitation, MM = Missing Value Source: NWS Daily Summary

Daily Weather History Graph

Daily Weather History Graph

Search for Another Location

Airport or City:

Trip Planner

Search our weather history database for the weather conditions in past years. The results will help you decide how hot, cold, wet, or windy it might be!

Date:

Astronomy

May. 14, 2013 Rise Set
Actual Time 6:23 AM CDT 8:40 PM CDT
Civil Twilight 5:53 AM CDT 9:10 PM CDT
Nautical Twilight 5:16 AM CDT 9:47 PM CDT
Astronomical Twilight 4:36 AM CDT 10:27 PM CDT
Moon 10:04 AM CDT (5/14) No Moon Set
Length of Visible Light 15h 16m
Length of Day
14h 16m
Waxing Crescent, 19% of the Moon is Illuminated
May 14
Waxing Crescent
May 17
First Quarter
May 24
Full
May 31
Last Quarter
Jun 8
New

Hourly Weather History & Observations

Time (CDT) Temp. Dew Point Humidity Pressure Visibility Wind Dir Wind Speed Gust Speed Precip Events Conditions
12:53 AM 66.0 °F 57.0 °F 73% 29.86 in 10.0 mi South 11.5 mph - N/A   Clear
1:53 AM 66.0 °F 55.9 °F 70% 29.84 in 10.0 mi SSW 11.5 mph - N/A   Clear
2:53 AM 63.0 °F 53.1 °F 70% 29.82 in 10.0 mi SSW 11.5 mph - N/A   Clear
3:53 AM 61.0 °F 50.0 °F 67% 29.81 in 10.0 mi SSW 12.7 mph - N/A   Clear
4:53 AM 61.0 °F 46.0 °F 58% 29.81 in 10.0 mi SSW 13.8 mph - N/A   Clear
5:53 AM 61.0 °F 42.1 °F 50% 29.81 in 10.0 mi SSW 15.0 mph - N/A   Clear
6:53 AM 61.0 °F 41.0 °F 48% 29.81 in 10.0 mi SSW 13.8 mph - N/A   Clear
7:53 AM 63.0 °F 42.1 °F 46% 29.81 in 10.0 mi SSW 15.0 mph - N/A   Clear
8:53 AM 69.1 °F 42.1 °F 38% 29.82 in 10.0 mi SSW 17.3 mph - N/A   Clear
9:53 AM 73.9 °F 42.1 °F 32% 29.81 in 10.0 mi SW 16.1 mph - N/A   Clear
10:53 AM 80.1 °F 44.1 °F 28% 29.81 in 10.0 mi SSW 17.3 mph - N/A   Clear
11:53 AM 88.0 °F 46.9 °F 24% 29.79 in 10.0 mi SSW 19.6 mph - N/A   Clear
12:53 PM 93.9 °F 43.0 °F 17% 29.77 in 10.0 mi SW 21.9 mph 33.4 mph N/A   Clear
1:53 PM 95.0 °F 42.1 °F 16% 29.74 in 10.0 mi South 25.3 mph 33.4 mph N/A   Clear
2:53 PM 96.1 °F 39.0 °F 14% 29.73 in 10.0 mi SW 31.1 mph 39.1 mph N/A   Clear
3:53 PM 96.1 °F 39.0 °F 14% 29.70 in 10.0 mi SSW 24.2 mph 36.8 mph N/A   Clear
4:53 PM 96.1 °F 39.9 °F 14% 29.68 in 10.0 mi SSW 26.5 mph 33.4 mph N/A   Clear
5:53 PM 93.9 °F 39.0 °F 15% 29.67 in 10.0 mi South 26.5 mph 35.7 mph N/A   Clear
6:53 PM 90.0 °F 44.1 °F 20% 29.68 in 10.0 mi South 25.3 mph 32.2 mph N/A   Clear
7:53 PM 84.9 °F 45.0 °F 25% 29.70 in 10.0 mi South 17.3 mph - N/A   Clear
8:53 PM 78.1 °F 45.0 °F 31% 29.71 in 10.0 mi South 13.8 mph - N/A   Clear
9:53 PM 75.9 °F 44.1 °F 32% 29.73 in 10.0 mi South 13.8 mph - N/A   Clear
10:53 PM 72.0 °F 46.0 °F 40% 29.75 in 10.0 mi South 12.7 mph - N/A   Clear
11:53 PM 69.1 °F 48.0 °F 47% 29.74 in 10.0 mi South 13.8 mph - N/A   Clear